Ogden Hill AFB, UT

10:48 PM MDT on August 16, 2017 (GMT -0600)
Hill Air Force Base

Weather History for KHIF - December, 2013

Change the Weather History Date:

Friday, December 6, 2013

  Actual Average Record
Temperature  
Mean Temperature 12 °F -  
Max Temperature 19 °F 36 °F 53 °F (2014)
Min Temperature 5 °F 23 °F 5 °F (2013)
Degree Days  
Heating Degree Days 53    
Moisture  
Dew Point 1 °F    
Average Humidity 70    
Maximum Humidity 79    
Minimum Humidity 49    
Precipitation  
Precipitation 0.00 in - - ()
Snow  
Snow 0.00 in - - ()
Snow Depth 1.00 in    
Sea Level Pressure  
Sea Level Pressure 30.08 in    
Wind  
Wind Speed 11 mph (ESE)    
Max Wind Speed 18 mph    
Max Gust Speed 22 mph    
Visibility 9 miles    
Events Snow    
Averages and records for this station are not official NWS values.
T = Trace of Precipitation, MM = Missing Value Source: NWS Daily Summary

Daily Weather History Graph

Daily Weather History Graph

Search for Another Location

Airport or City:

Trip Planner

Search our weather history database for the weather conditions in past years. The results will help you decide how hot, cold, wet, or windy it might be!

Date:

Astronomy

Dec. 06, 2013 Rise Set
Actual Time 7:38 AM MST 4:59 PM MST
Civil Twilight 7:08 AM MST 5:30 PM MST
Nautical Twilight 6:33 AM MST 6:04 PM MST
Astronomical Twilight 6:00 AM MST 6:37 PM MST
Moon 10:45 AM MST (12/6) 9:36 PM MST (12/6)
Length of Visible Light 10h 21m
Length of Day
9h 20m
Waxing Crescent, 20% of the Moon is Illuminated
Dec 6
Waxing Crescent
Dec 9
First Quarter
Dec 17
Full
Dec 25
Last Quarter
Jan 1
New

Hourly Weather History & Observations

Time (MST) Temp. Windchill Dew Point Humidity Pressure Visibility Wind Dir Wind Speed Gust Speed Precip Events Conditions
12:28 AM 8.6 °F -4.7 °F 1.4 °F 73% 30.02 in 10.0 mi ESE 9.2 mph - N/A   Overcast
12:33 AM 8.6 °F -5.5 °F -0.4 °F 67% 30.02 in 10.0 mi ESE 10.4 mph - N/A   Overcast
12:38 AM 8.6 °F -6.3 °F 1.4 °F 73% 30.02 in 10.0 mi ESE 11.5 mph - N/A   Overcast
12:53 AM 8.6 °F -4.7 °F 1.4 °F 73% 30.02 in 10.0 mi ESE 9.2 mph - N/A   Overcast
12:58 AM 8.8 °F -5.3 °F 0.9 °F 70% 30.19 in 10.0 mi ESE 10.4 mph - N/A   Overcast
1:02 AM 8.6 °F -5.5 °F 1.4 °F 73% 30.02 in 9.0 mi ESE 10.4 mph - N/A Snow Light Snow
1:12 AM 8.6 °F -3.7 °F 1.4 °F 73% 30.02 in 3.0 mi ESE 8.1 mph - N/A Snow Light Snow
1:17 AM 8.6 °F -3.7 °F 3.2 °F 79% 30.02 in 2.5 mi East 8.1 mph - N/A Snow Light Snow
1:22 AM 8.6 °F -5.5 °F 3.2 °F 79% 30.02 in 3.0 mi East 10.4 mph - N/A Snow Light Snow
1:27 AM 8.6 °F -6.3 °F 1.4 °F 73% 30.02 in 3.0 mi ESE 11.5 mph - N/A Snow Light Snow
1:50 AM 8.6 °F -6.3 °F 3.2 °F 79% 30.02 in 5.0 mi ESE 11.5 mph - N/A   Haze
1:55 AM 8.6 °F -4.7 °F 3.2 °F 79% 30.02 in 6.0 mi ESE 9.2 mph - N/A   Haze
1:58 AM 7.9 °F -7.2 °F 2.7 °F 79% 30.19 in 6.0 mi ESE 11.5 mph - 0.00 in   Haze
2:08 AM 8.6 °F -5.5 °F 1.4 °F 73% 30.02 in 10.0 mi ESE 10.4 mph - N/A   Overcast
2:13 AM 8.6 °F -5.5 °F 1.4 °F 73% 30.02 in 8.0 mi ESE 10.4 mph - N/A   Overcast
2:14 AM 8.6 °F -5.5 °F 1.4 °F 73% 30.02 in 8.0 mi ESE 10.4 mph - N/A Snow Light Snow
2:29 AM 8.6 °F -5.5 °F 3.2 °F 79% 30.02 in 3.0 mi ESE 10.4 mph - N/A Snow Light Snow
2:34 AM 8.6 °F -5.5 °F 1.4 °F 73% 30.02 in 2.5 mi ESE 10.4 mph - N/A Snow Light Snow
2:39 AM 8.6 °F -5.5 °F 1.4 °F 73% 30.02 in 3.0 mi ESE 10.4 mph - N/A Snow Light Snow
2:49 AM 8.6 °F -7.0 °F 1.4 °F 73% 30.02 in 6.0 mi ESE 12.7 mph - N/A Snow Light Snow
2:52 AM 8.6 °F -6.3 °F 1.4 °F 73% 30.02 in 9.0 mi ESE 11.5 mph - N/A   Overcast
2:57 AM 8.6 °F -7.0 °F 1.4 °F 73% 30.02 in 10.0 mi ESE 12.7 mph - N/A   Overcast
2:58 AM 7.7 °F -8.2 °F 1.2 °F 75% 30.20 in 10.0 mi ESE 12.7 mph - 0.00 in   Overcast
3:08 AM 6.8 °F -8.6 °F 1.4 °F 79% 30.03 in 10.0 mi ESE 11.5 mph - N/A   Overcast
3:18 AM 6.8 °F -7.8 °F 1.4 °F 79% 30.03 in 10.0 mi ESE 10.4 mph - N/A   Overcast
3:39 AM 6.8 °F -8.6 °F 1.4 °F 79% 30.03 in 10.0 mi ESE 11.5 mph - N/A Snow Light Snow
3:44 AM 6.8 °F -7.8 °F 1.4 °F 79% 30.03 in 10.0 mi ESE 10.4 mph - N/A Snow Light Snow
3:54 AM 6.8 °F -8.6 °F 1.4 °F 79% 30.03 in 10.0 mi ESE 11.5 mph - N/A Snow Light Snow
3:58 AM 6.8 °F -8.6 °F 1.4 °F 79% 30.21 in 10.0 mi ESE 11.5 mph - 0.00 in Snow Light Snow
4:08 AM 6.8 °F -7.8 °F -0.4 °F 72% 30.03 in 8.0 mi ESE 10.4 mph - N/A Snow Light Snow
4:33 AM 6.8 °F -7.8 °F 1.4 °F 79% 30.03 in 4.0 mi ESE 10.4 mph - N/A Snow Light Snow
4:38 AM 6.8 °F -7.8 °F 1.4 °F 79% 30.03 in 5.0 mi ESE 10.4 mph - N/A Snow Light Snow
4:43 AM 6.8 °F -7.8 °F 1.4 °F 79% 30.03 in 7.0 mi ESE 10.4 mph - N/A Snow Light Snow
4:44 AM 6.8 °F -7.8 °F 1.4 °F 79% 30.03 in 7.0 mi ESE 10.4 mph - N/A   Overcast
4:58 AM 7.2 °F -7.3 °F 1.4 °F 77% 30.23 in 10.0 mi ESE 10.4 mph - 0.00 in   Overcast
5:48 AM 6.8 °F -7.8 °F -0.4 °F 72% 30.03 in 10.0 mi ESE 10.4 mph - N/A   Overcast
5:58 AM 6.4 °F -8.2 °F -0.4 °F 74% 30.23 in 10.0 mi ESE 10.4 mph - N/A   Overcast
6:28 AM 6.8 °F -8.6 °F -0.4 °F 72% 30.03 in 10.0 mi ESE 11.5 mph - N/A   Overcast
6:43 AM 6.8 °F -8.6 °F -0.4 °F 72% 30.03 in 10.0 mi ESE 11.5 mph - N/A   Mostly Cloudy
6:48 AM 6.8 °F -8.6 °F -2.2 °F 67% 30.03 in 10.0 mi ESE 11.5 mph - N/A   Scattered Clouds
6:58 AM 6.1 °F -9.5 °F -1.7 °F 71% 30.23 in 10.0 mi ESE 11.5 mph - N/A   Partly Cloudy
7:13 AM 6.8 °F -8.6 °F -2.2 °F 67% 30.04 in 10.0 mi ESE 11.5 mph - N/A   Mostly Cloudy
7:18 AM 6.8 °F -8.6 °F -2.2 °F 67% 30.04 in 10.0 mi ESE 11.5 mph - N/A   Mostly Cloudy
7:38 AM 5.0 °F -10.8 °F -2.2 °F 72% 30.04 in 10.0 mi ESE 11.5 mph - N/A   Mostly Cloudy
7:48 AM 6.8 °F -9.3 °F -2.2 °F 67% 30.05 in 10.0 mi ESE 12.7 mph - N/A   Overcast
7:58 AM 6.1 °F -10.2 °F -2.6 °F 68% 30.25 in 10.0 mi ESE 12.7 mph - N/A   Mostly Cloudy
8:58 AM 7.2 °F -8.9 °F -2.6 °F 64% 30.26 in 10.0 mi ESE 12.7 mph - N/A   Scattered Clouds
9:58 AM 10.2 °F -4.3 °F -1.8 °F 58% 30.25 in 10.0 mi ESE 11.5 mph - N/A   Scattered Clouds
10:55 AM 12.2 °F -0.2 °F -0.8 °F 56% 30.27 in 10.0 mi ESE 9.2 mph - N/A   Scattered Clouds
11:58 AM 15.3 °F 5.4 °F 1.6 °F 55% 30.23 in 10.0 mi East 6.9 mph - N/A   Clear
12:58 PM 18.9 °F 9.8 °F 3.2 °F 51% 30.19 in 10.0 mi ESE 6.9 mph - N/A   Clear
1:58 PM 19.6 °F 7.4 °F 3.0 °F 49% 30.16 in 10.0 mi South 11.5 mph - N/A   Clear
2:48 PM 17.6 °F 4.3 °F 3.2 °F 53% 30.00 in 10.0 mi South 12.7 mph - N/A   Mostly Cloudy
2:58 PM 18.3 °F 5.2 °F 4.1 °F 54% 30.15 in 10.0 mi SSW 12.7 mph - N/A   Overcast
3:58 PM 18.3 °F 6.6 °F 3.9 °F 53% 30.18 in 10.0 mi South 10.4 mph - N/A   Overcast
4:23 PM 17.6 °F 7.3 °F 5.0 °F 58% 30.00 in 10.0 mi South 8.1 mph - N/A   Mostly Cloudy
4:58 PM 16.0 °F 5.3 °F 4.1 °F 60% 30.17 in 10.0 mi ESE 8.1 mph - N/A   Overcast
5:03 PM 15.8 °F 6.1 °F 3.2 °F 58% 30.00 in 10.0 mi ESE 6.9 mph - N/A   Mostly Cloudy
5:58 PM 15.1 °F 2.5 °F 4.5 °F 63% 30.17 in 10.0 mi ESE 10.4 mph - N/A   Mostly Cloudy
6:58 PM 15.3 °F 2.8 °F 4.5 °F 62% 30.17 in 10.0 mi ESE 10.4 mph - N/A   Mostly Cloudy
7:38 PM 14.0 °F -0.2 °F 3.2 °F 62% 30.00 in 10.0 mi ESE 12.7 mph - N/A   Partly Cloudy
7:58 PM 13.5 °F -0.2 °F 3.0 °F 63% 30.18 in 10.0 mi ESE 11.5 mph - N/A   Clear
8:58 PM 12.4 °F -2.3 °F 3.0 °F 66% 30.17 in 10.0 mi ESE 12.7 mph - N/A   Clear
9:58 PM 12.2 °F -4.3 °F 2.3 °F 65% 30.14 in 10.0 mi East 16.1 mph - N/A   Clear
10:58 PM 12.2 °F -4.3 °F 1.8 °F 63% 30.12 in 10.0 mi ESE 16.1 mph 21.9 mph N/A   Clear
11:55 PM 10.4 °F -7.7 °F 1.4 °F 67% 29.92 in 10.0 mi ESE 18.4 mph 20.7 mph N/A   Clear